Location: Chervonnoye
(48.6000°N, 34.4000°E)
Time: 13:31:39
(UTC+00:00)

Cosmos 1633 Rocket - Pass Details

Date: 23 November 2020
Orbit: 607 x 623 km, 82.5° (Epoch: 27 January)

Event Time Altitude Azimuth Distance (km) Brightness Sun altitude
Rises 15:52:17 0° 351° (N) 2,908 6.5 -19.0°
Reaches altitude 10° 15:54:32 10° 353° (N) 1,994 5.6 -19.4°
Maximum altitude 15:58:57 76° 80° (E) 641 2.9 -20.1°
Drops below altitude 10° 16:03:18 10° 166° (SSE) 1,968 5.6 -20.8°
Sets 16:05:31 0° 168° (SSE) 2,865 6.4 -21.2°
